When you browse on this site, cookies collect data to enhance your experience and personalize the content and advertising you see.
Visit our Privacy Policy to learn more. By continuing to use the site, you agree to this use of cookies and data.
  • In Austria
  • List of Countries
  • For 7 days
  • Water Temperature
  • Satellite Maps
  • Weather Map
  • News
  • Weather Widgets
  • user-avatar
    Login

    Hourly Weather Orlowce

    Today, 20 February, Wednesday

    Time Temperature Precipitation Wind Pressure Humidity
    00:00 +3°C° 0 mm 5 mps 759 mmHg 84%
    01:00 +4°C° 0 mm 4 mps 759 mmHg 88%
    02:00 +4°C° 0 mm 4 mps 759 mmHg 88%
    03:00 +3°C° 0 mm 4 mps 759 mmHg 88%
    04:00 +2°C° 0 mm 5 mps 759 mmHg 89%
    05:00 +2°C° 0 mm 5 mps 759 mmHg 87%
    06:00 +3°C° 0 mm 5 mps 759 mmHg 85%
    07:00 +3°C° 0 mm 5 mps 760 mmHg 83%
    08:00 +3°C° 0 mm 5 mps 760 mmHg 81%
    09:00 +5°C° 0 mm 5 mps 761 mmHg 78%
    10:00 +5°C° 0 mm 5 mps 761 mmHg 76%
    11:00 +5°C° 0 mm 5 mps 761 mmHg 75%
    12:00 +6°C° 0 mm 5 mps 762 mmHg 74%
    13:00 +6°C° 0 mm 4 mps 762 mmHg 73%
    14:00 +6°C° 0 mm 4 mps 762 mmHg 73%
    15:00 +7°C° 0 mm 3 mps 762 mmHg 73%
    16:00 +7°C° 0 mm 3 mps 762 mmHg 74%
    17:00 +7°C° 0 mm 2 mps 763 mmHg 76%
    18:00 +7°C° 0 mm 2 mps 763 mmHg 78%
    19:00 +6°C° 0 mm 2 mps 763 mmHg 81%
    20:00 +6°C° 0 mm 2 mps 764 mmHg 82%
    21:00 +6°C° 0 mm 2 mps 764 mmHg 83%
    22:00 +6°C° 0 mm 2 mps 764 mmHg 84%
    23:00 +6°C° 0 mm 2 mps 764 mmHg 86%

    Tomorrow, 21 February, Thursday

    Time Temperature Precipitation Wind Pressure Humidity
    00:00 +5°C° 0 mm 2 mps 764 mmHg 89%
    01:00 +5°C° 0 mm 2 mps 764 mmHg 91%
    02:00 +4°C° 0 mm 3 mps 764 mmHg 88%
    03:00 +4°C° 0 mm 3 mps 764 mmHg 86%
    04:00 +4°C° 0 mm 3 mps 764 mmHg 84%
    05:00 +5°C° 0.1 mm 3 mps 763 mmHg 84%
    06:00 +5°C° 0.1 mm 4 mps 763 mmHg 84%
    07:00 +5°C° 0.1 mm 4 mps 763 mmHg 84%
    08:00 +5°C° 0.3 mm 4 mps 763 mmHg 83%
    09:00 +5°C° 0.3 mm 5 mps 763 mmHg 82%
    10:00 +5°C° 0.3 mm 5 mps 763 mmHg 82%
    11:00 +6°C° 0.7 mm 5 mps 763 mmHg 83%
    12:00 +5°C° 0.7 mm 6 mps 763 mmHg 84%
    13:00 +5°C° 0.7 mm 6 mps 763 mmHg 85%
    14:00 +5°C° 0.6 mm 6 mps 762 mmHg 85%
    15:00 +5°C° 0.6 mm 6 mps 762 mmHg 85%
    16:00 +6°C° 0.6 mm 5 mps 762 mmHg 86%
    17:00 +6°C° 0.2 mm 5 mps 762 mmHg 87%
    18:00 +7°C° 0.2 mm 5 mps 762 mmHg 88%
    19:00 +7°C° 0.2 mm 5 mps 762 mmHg 89%
    20:00 +7°C° 0.2 mm 5 mps 762 mmHg 89%
    21:00 +7°C° 0.2 mm 5 mps 762 mmHg 89%
    22:00 +7°C° 0.2 mm 5 mps 762 mmHg 90%
    23:00 +7°C° 0.1 mm 5 mps 763 mmHg 89%

    Day after tomorrow, 22 February, Friday

    Time Temperature Precipitation Wind Pressure Humidity
    00:00 +7°C° 0.1 mm 5 mps 763 mmHg 89%
    01:00 +7°C° 0.1 mm 5 mps 763 mmHg 88%
    02:00 +7°C° 0 mm 5 mps 764 mmHg 87%
    03:00 +6°C° 0 mm 5 mps 764 mmHg 87%
    04:00 +6°C° 0 mm 5 mps 765 mmHg 86%
    05:00 +3°C° 0 mm 5 mps 766 mmHg 84%
    06:00 +2°C° 0 mm 6 mps 767 mmHg 81%
    07:00 -1°C° 0 mm 6 mps 769 mmHg 79%
    08:00 0°C° 0 mm 5 mps 770 mmHg 72%
    09:00 0°C° 0 mm 5 mps 771 mmHg 66%
    10:00 0°C° 0 mm 4 mps 772 mmHg 59%
    11:00 +1°C° 0 mm 4 mps 773 mmHg 55%
    12:00 +1°C° 0 mm 4 mps 774 mmHg 51%
    13:00 +3°C° 0 mm 4 mps 774 mmHg 47%
    14:00 +3°C° 0 mm 3 mps 775 mmHg 47%
    15:00 +2°C° 0 mm 3 mps 775 mmHg 46%
    16:00 +2°C° 0 mm 3 mps 776 mmHg 46%
    17:00 +1°C° 0 mm 3 mps 776 mmHg 51%
    18:00 +1°C° 0 mm 2 mps 777 mmHg 55%
    19:00 -1°C° 0 mm 2 mps 777 mmHg 60%
    20:00 -1°C° 0 mm 2 mps 777 mmHg 59%
    21:00 -2°C° 0 mm 2 mps 778 mmHg 59%
    22:00 -2°C° 0 mm 2 mps 778 mmHg 59%
    23:00 -3°C° 0 mm 2 mps 778 mmHg 57%

    23 February, Saturday

    Time Temperature Precipitation Wind Pressure Humidity
    00:00 -3°C° 0 mm 2 mps 779 mmHg 55%
    01:00 -3°C° 0 mm 2 mps 779 mmHg 53%
    02:00 -3°C° 0 mm 2 mps 779 mmHg 52%
    03:00 -3°C° 0 mm 2 mps 779 mmHg 51%
    04:00 -3°C° 0 mm 2 mps 778 mmHg 49%
    05:00 -3°C° 0 mm 2 mps 779 mmHg 49%
    06:00 -3°C° 0 mm 2 mps 779 mmHg 48%
    07:00 -4°C° 0 mm 2 mps 779 mmHg 47%
    08:00 -3°C° 0 mm 2 mps 779 mmHg 42%
    09:00 -2°C° 0 mm 2 mps 779 mmHg 37%
    10:00 -1°C° 0 mm 2 mps 779 mmHg 32%
    11:00 +1°C° 0 mm 2 mps 779 mmHg 29%
    12:00 +2°C° 0 mm 2 mps 779 mmHg 27%
    13:00 +3°C° 0 mm 2 mps 779 mmHg 24%
    14:00 +4°C° 0 mm 1 mps 779 mmHg 25%
    15:00 +4°C° 0 mm 1 mps 778 mmHg 26%
    16:00 +4°C° 0 mm 1 mps 778 mmHg 27%
    17:00 +3°C° 0 mm 1 mps 778 mmHg 30%
    18:00 +2°C° 0 mm 1 mps 778 mmHg 33%
    19:00 +1°C° 0 mm 1 mps 778 mmHg 36%
    20:00 +1°C° 0 mm 1 mps 778 mmHg 37%
    21:00 0°C° 0 mm 1 mps 778 mmHg 37%
    22:00 0°C° 0 mm 1 mps 778 mmHg 38%
    23:00 0°C° 0 mm 1 mps 777 mmHg 38%

    24 February, Sunday

    Time Temperature Precipitation Wind Pressure Humidity
    00:00 0°C° 0 mm 1 mps 777 mmHg 38%
    01:00 0°C° 0 mm 1 mps 777 mmHg 38%
    02:00 0°C° 0 mm 1 mps 777 mmHg 38%
    03:00 0°C° 0 mm 1 mps 777 mmHg 37%
    04:00 -1°C° 0 mm 0 mps 776 mmHg 37%
    05:00 -1°C° 0 mm 0 mps 776 mmHg 37%
    06:00 -1°C° 0 mm 0 mps 776 mmHg 36%
    07:00 -1°C° 0 mm 0 mps 776 mmHg 36%
    08:00 0°C° 0 mm 0 mps 776 mmHg 33%
    09:00 +3°C° 0 mm 1 mps 776 mmHg 30%
    10:00 +4°C° 0 mm 1 mps 776 mmHg 27%
    11:00 +5°C° 0 mm 1 mps 776 mmHg 27%
    12:00 +6°C° 0 mm 1 mps 776 mmHg 26%
    13:00 +7°C° 0 mm 1 mps 776 mmHg 26%
    14:00 +7°C° 0 mm 1 mps 775 mmHg 31%
    15:00 +6°C° 0 mm 1 mps 775 mmHg 35%
    16:00 +6°C° 0 mm 1 mps 775 mmHg 40%
    17:00 +5°C° 0 mm 1 mps 775 mmHg 43%
    18:00 +4°C° 0 mm 1 mps 775 mmHg 47%
    19:00 +2°C° 0 mm 1 mps 775 mmHg 50%
    20:00 +2°C° 0 mm 1 mps 775 mmHg 51%
    21:00 +2°C° 0 mm 1 mps 775 mmHg 53%
    22:00 +2°C° 0 mm 1 mps 775 mmHg 54%
    23:00 +2°C° 0 mm 1 mps 775 mmHg 55%

    25 February, Monday

    Time Temperature Precipitation Wind Pressure Humidity
    00:00 +2°C° 0 mm 1 mps 775 mmHg 57%
    01:00 +2°C° 0 mm 1 mps 775 mmHg 58%
    02:00 +2°C° 0 mm 1 mps 775 mmHg 59%
    03:00 +2°C° 0 mm 1 mps 775 mmHg 60%
    04:00 +1°C° 0 mm 2 mps 775 mmHg 61%
    05:00 +1°C° 0 mm 2 mps 775 mmHg 63%
    06:00 -1°C° 0 mm 2 mps 775 mmHg 64%
    07:00 -1°C° 0 mm 2 mps 775 mmHg 66%
    08:00 +2°C° 0 mm 2 mps 775 mmHg 64%
    09:00 +3°C° 0 mm 2 mps 775 mmHg 61%
    10:00 +5°C° 0 mm 2 mps 776 mmHg 58%
    11:00 +5°C° 0 mm 3 mps 776 mmHg 59%
    12:00 +7°C° 0 mm 3 mps 775 mmHg 61%
    13:00 +8°C° 0 mm 3 mps 775 mmHg 62%
    14:00 +8°C° 0 mm 3 mps 775 mmHg 63%
    15:00 +9°C° 0 mm 2 mps 775 mmHg 65%
    16:00 +9°C° 0 mm 2 mps 775 mmHg 66%
    17:00 +7°C° 0 mm 2 mps 775 mmHg 72%
    18:00 +6°C° 0 mm 2 mps 775 mmHg 78%
    19:00 +6°C° 0 mm 1 mps 775 mmHg 84%
    20:00 +5°C° 0 mm 1 mps 776 mmHg 84%
    21:00 +4°C° 0 mm 1 mps 776 mmHg 84%
    22:00 +4°C° 0 mm 1 mps 776 mmHg 84%
    23:00 +4°C° 0 mm 1 mps 776 mmHg 84%
    Show more